Starlink 2494

operational
NORAD ID: 48487 Int'l Des: 2021-040 Owner: SPXS Country: US Constellation: starlink
LEOCIRCULARSTARLINK_TYPE

About Starlink 2494

Description loading...

Live Position

Loading 3D Globe...

Upcoming Passes

Altitude History

Altitude vs Time

uPlot chart will show altitude changes over time

Two-Line Element Set

1 48487U 21040BM 25354.81525397 -.00000250 00000-0 20852-5 0 9997
2 48487 53.0538 195.6976 0001593 98.7089 261.4080 15.06389995254466
Epoch: Dec 20, 2025 • Age: 6 hours

Current Status

Altitude 547.5 km
Velocity 7.59 km/s
Sub-Earth Point 21.54°N, 90.91°E
Launch Date May 9, 2021
Age 4.6 years
Type internet

Technical Details

Classification Payload
Mass 260.00 kg
Dry Mass 248.00 kg
Total Mass 260.00 kg
Length 0.20 m
Diameter 2.80 m
Span 9.00 m
Shape Box + pan
Manufacturer SPXS
Bus Type Starlink
Phase Status In Orbit
Owner/State SPXS/US

Large Constellations

Loading constellations...